Weather History for KLWB - December, 2012

Change the Weather History Date:

Monday, December 31, 2012

  Actual Average Record
Temperature  
Mean Temperature 21 °F 29 °F  
Max Temperature 32 °F 38 °F 60 °F (1992)
Min Temperature 10 °F 19 °F -1 °F (1983)
Degree Days  
Heating Degree Days 44    
Month to date heating degree days  
Since 1 July heating degree days  
Cooling Degree Days 0    
Month to date cooling degree days  
Year to date cooling degree days  
Moisture  
Dew Point 14 °F    
Average Humidity 69    
Maximum Humidity 93    
Minimum Humidity 41    
Precipitation  
Precipitation 0.00 in - 0.06 in (2011)
Snow  
Snow 0.00 in - - ()
Month to date snowfall  
Since 1 July snowfall  
Snow Depth -    
Sea Level Pressure  
Sea Level Pressure 30.19 in    
Wind  
Wind Speed 3 mph (SW)    
Max Wind Speed 13 mph    
Max Gust Speed -    
Visibility 10 miles    
Events      
T = Trace of Precipitation, MM = Missing Value Source: NWS Daily Summary

Daily Weather History Graph

Daily Weather History Graph

Search for Another Location

Airport or City:

Trip Planner

Search our weather history database for the weather conditions in past years. The results will help you decide how hot, cold, wet, or windy it might be!

Date:

Astronomy

Dec. 31, 2012 Rise Set
Actual Time 7:37 AM EST 5:12 PM EST
Civil Twilight 7:07 AM EST 5:42 PM EST
Nautical Twilight 6:34 AM EST 6:14 PM EST
Astronomical Twilight 6:03 AM EST 6:46 PM EST
Moon 8:37 PM EST (12/31) 9:21 AM EST (12/31)
Length of Visible Light 10h 34m
Length of Day
9h 35m
Waning Gibbous, 90% of the Moon is Illuminated
Dec 31
Waning Gibbous
Jan 4
Last Quarter
Jan 11
New
Jan 18
First Quarter
Jan 26
Full

Hourly Weather History & Observations

Time (EST) Temp. Windchill Dew Point Humidity Pressure Visibility Wind Dir Wind Speed Gust Speed Precip Events Conditions
12:15 AM 17.6 °F 9.3 °F 12.2 °F 79% 30.29 in 10.0 mi South 5.8 mph - N/A   Clear
12:35 AM 17.6 °F 10.7 °F 12.2 °F 79% 30.30 in 10.0 mi South 4.6 mph - N/A   Clear
12:55 AM 17.6 °F - 12.2 °F 79% 30.30 in 10.0 mi Calm Calm - N/A   Clear
1:15 AM 17.6 °F - 12.2 °F 79% 30.30 in 10.0 mi Calm Calm - N/A   Clear
1:35 AM 15.8 °F 10.2 °F 12.2 °F 86% 30.30 in 10.0 mi SSW 3.5 mph - N/A   Clear
1:55 AM 15.8 °F 8.6 °F 12.2 °F 86% 30.28 in 10.0 mi South 4.6 mph - N/A   Clear
2:15 AM 14.0 °F - 10.4 °F 86% 30.29 in 10.0 mi Calm Calm - N/A   Clear
2:35 AM 14.0 °F - 12.2 °F 93% 30.30 in 10.0 mi Calm Calm - N/A   Clear
2:55 AM 14.0 °F - 12.2 °F 93% 30.29 in 10.0 mi Calm Calm - N/A   Clear
3:15 AM 14.0 °F 8.2 °F 12.2 °F 93% 30.27 in 7.0 mi South 3.5 mph - N/A   Clear
3:35 AM 14.0 °F 6.5 °F 12.2 °F 93% 30.28 in 10.0 mi South 4.6 mph - N/A   Clear
3:55 AM 14.0 °F - 12.2 °F 93% 30.28 in 10.0 mi Calm Calm - N/A   Clear
4:15 AM 14.0 °F - 12.2 °F 93% 30.28 in 10.0 mi Calm Calm - N/A   Clear
4:35 AM 14.0 °F - 10.4 °F 86% 30.27 in 10.0 mi Calm Calm - N/A   Clear
4:55 AM 15.8 °F - 14.0 °F 93% 30.26 in 10.0 mi Calm Calm - N/A   Clear
5:15 AM 15.8 °F - 14.0 °F 93% 30.26 in 10.0 mi Calm Calm - N/A   Clear
5:35 AM 12.2 °F - 10.4 °F 92% 30.25 in 10.0 mi Calm Calm - N/A   Clear
5:55 AM 12.2 °F - 10.4 °F 92% 30.26 in 10.0 mi Calm Calm - N/A   Clear
6:15 AM 12.2 °F - 10.4 °F 92% 30.26 in 10.0 mi Calm Calm - N/A   Clear
6:35 AM 10.4 °F 4.0 °F 8.6 °F 92% 30.26 in 7.0 mi NNE 3.5 mph - N/A   Clear
6:55 AM 10.4 °F - 8.6 °F 92% 30.26 in 7.0 mi Calm Calm - N/A   Clear
7:15 AM 12.2 °F 6.1 °F 8.6 °F 85% 30.26 in 10.0 mi North 3.5 mph - N/A   Clear
7:35 AM 10.4 °F - 8.6 °F 92% 30.26 in 10.0 mi Calm Calm - N/A   Clear
7:55 AM 12.2 °F - 8.6 °F 85% 30.26 in 7.0 mi Calm Calm - N/A   Clear
8:15 AM 10.4 °F - 8.6 °F 92% 30.26 in 7.0 mi Calm Calm - N/A   Clear
8:35 AM 12.2 °F - 8.6 °F 85% 30.26 in 7.0 mi Calm Calm - N/A   Clear
8:55 AM 12.2 °F - 10.4 °F 92% 30.26 in 7.0 mi Calm Calm - N/A   Clear
9:15 AM 14.0 °F - 10.4 °F 86% 30.26 in 7.0 mi Calm Calm - N/A   Clear
9:35 AM 15.8 °F - 12.2 °F 86% 30.26 in 10.0 mi Calm Calm - N/A   Clear
9:55 AM 19.4 °F 14.3 °F 14.0 °F 80% 30.24 in 10.0 mi SW 3.5 mph - N/A   Clear
10:15 AM 19.4 °F 12.8 °F 15.8 °F 86% 30.24 in 7.0 mi SSW 4.6 mph - N/A   Clear
10:35 AM 23.0 °F 18.4 °F 17.6 °F 80% 30.24 in 10.0 mi SSW 3.5 mph - N/A   Clear
10:55 AM 23.0 °F 18.4 °F 17.6 °F 80% 30.24 in 10.0 mi SSW 3.5 mph - N/A   Scattered Clouds
11:15 AM 26.6 °F 20.0 °F 17.6 °F 69% 30.23 in 10.0 mi SSW 5.8 mph - N/A   Mostly Cloudy
11:35 AM 26.6 °F 22.6 °F 17.6 °F 69% 30.21 in 10.0 mi South 3.5 mph - N/A   Overcast
11:55 AM 28.4 °F - 17.6 °F 64% 30.19 in 10.0 mi Calm Calm - N/A   Overcast
12:15 PM 28.4 °F 18.0 °F 17.6 °F 64% 30.20 in 10.0 mi SW 12.7 mph - N/A   Overcast
12:35 PM 30.2 °F 25.4 °F 15.8 °F 55% 30.18 in 10.0 mi SSW 4.6 mph - N/A   Scattered Clouds
12:55 PM 32.0 °F 28.7 °F 14.0 °F 48% 30.15 in 10.0 mi SSW 3.5 mph - N/A   Clear
1:15 PM 32.0 °F 25.6 °F 14.0 °F 48% 30.14 in 10.0 mi SSW 6.9 mph - N/A   Clear
1:35 PM 32.0 °F 24.8 °F 14.0 °F 48% 30.13 in 10.0 mi SW 8.1 mph - N/A   Scattered Clouds
1:55 PM 32.0 °F 24.8 °F 17.6 °F 55% 30.15 in 10.0 mi SW 8.1 mph - N/A   Mostly Cloudy
2:15 PM 32.0 °F 27.5 °F 17.6 °F 55% 30.12 in 10.0 mi SSW 4.6 mph - N/A   Overcast
2:35 PM 32.0 °F 27.5 °F 17.6 °F 55% 30.14 in 10.0 mi West 4.6 mph - N/A   Overcast
2:55 PM 32.0 °F 25.6 °F 14.0 °F 48% 30.13 in 10.0 mi WSW 6.9 mph - N/A   Overcast
3:15 PM 32.0 °F 25.6 °F 14.0 °F 48% 30.12 in 10.0 mi WSW 6.9 mph - N/A   Overcast
3:35 PM 32.0 °F 23.6 °F 14.0 °F 48% 30.13 in 10.0 mi SW 10.4 mph - N/A   Overcast
3:55 PM 32.0 °F 25.6 °F 14.0 °F 48% 30.12 in 10.0 mi SW 6.9 mph - N/A   Overcast
4:15 PM 32.0 °F 24.8 °F 12.2 °F 44% 30.13 in 10.0 mi WSW 8.1 mph - N/A   Overcast
4:35 PM 32.0 °F 26.4 °F 14.0 °F 48% 30.11 in 10.0 mi SW 5.8 mph - N/A   Overcast
4:55 PM 32.0 °F 27.5 °F 17.6 °F 55% 30.11 in 10.0 mi SW 4.6 mph - N/A   Overcast
5:15 PM 32.0 °F 26.4 °F 14.0 °F 48% 30.09 in 10.0 mi SSW 5.8 mph - N/A   Overcast
5:35 PM 30.2 °F 24.3 °F 15.8 °F 55% 30.09 in 10.0 mi SW 5.8 mph - N/A   Scattered Clouds
6:15 PM 32.0 °F 28.7 °F 14.0 °F 48% 30.12 in 10.0 mi SW 3.5 mph - N/A   Scattered Clouds
6:35 PM 32.0 °F 28.7 °F 12.2 °F 44% 30.10 in 10.0 mi West 3.5 mph - N/A   Clear
7:15 PM 30.2 °F 26.7 °F 15.8 °F 55% 30.10 in 10.0 mi SW 3.5 mph - N/A   Scattered Clouds
7:35 PM 32.0 °F 28.7 °F 12.2 °F 44% 30.09 in 10.0 mi West 3.5 mph - N/A   Scattered Clouds
7:55 PM 32.0 °F 27.5 °F 10.4 °F 41% 30.08 in 10.0 mi West 4.6 mph - N/A   Mostly Cloudy
8:15 PM 32.0 °F 26.4 °F 10.4 °F 41% 30.08 in 10.0 mi WSW 5.8 mph - N/A   Mostly Cloudy
8:35 PM 32.0 °F 28.7 °F 14.0 °F 48% 30.08 in 10.0 mi SW 3.5 mph - N/A   Scattered Clouds
9:15 PM 32.0 °F - 14.0 °F 48% 30.08 in 10.0 mi Calm Calm - N/A   Mostly Cloudy
9:35 PM 32.0 °F - 14.0 °F 48% 30.07 in 10.0 mi Calm Calm - N/A   Scattered Clouds
9:55 PM 32.0 °F - 14.0 °F 48% 30.06 in 10.0 mi Calm Calm - N/A   Clear
10:15 PM 32.0 °F - 17.6 °F 55% 30.06 in 10.0 mi Calm Calm - N/A   Clear
10:35 PM 32.0 °F 27.5 °F 17.6 °F 55% 30.06 in 10.0 mi SW 4.6 mph - N/A   Clear
10:55 PM 32.0 °F 26.4 °F 17.6 °F 55% 30.05 in 10.0 mi SSW 5.8 mph - N/A   Scattered Clouds
11:15 PM 32.0 °F 24.2 °F 17.6 °F 55% 30.06 in 10.0 mi WSW 9.2 mph - N/A   Mostly Cloudy
11:35 PM 32.0 °F 26.4 °F 17.6 °F 55% 30.05 in 10.0 mi WSW 5.8 mph - N/A   Overcast
11:55 PM 32.0 °F 26.4 °F 17.6 °F 55% 30.05 in 10.0 mi WSW 5.8 mph - N/A   Overcast